| time (UTC) | temp F | wind direction | speed MPH | gust MPH | rain 1hr in | rain 24hr in | rain mn in | humidity % | barometer mb |
| 20260504050738 | 49 | 175 | 1.0 | 1.0 | 0.00 | 0.00 | 0.00 | 61 | 1015.9 |
| 20260504050235 | 49 | 171 | 0.0 | 0.0 | 0.00 | 0.00 | 0.00 | 58 | 1015.8 |
| 20260504045732 | 49 | 135 | 0.0 | 0.0 | 0.00 | 0.00 | 0.00 | 56 | 1016.0 |
| 20260504045227 | 49 | 134 | 0.0 | 0.0 | 0.00 | 0.00 | 0.00 | 54 | 1015.9 |
| 20260504044725 | 49 | 134 | 0.0 | 0.0 | 0.00 | 0.00 | 0.00 | 55 | 1015.8 |
| 20260504044222 | 49 | 134 | 0.0 | 0.0 | 0.00 | 0.00 | 0.00 | 53 | 1015.7 |
| 20260504043719 | 49 | 134 | 0.0 | 0.0 | 0.00 | 0.00 | 0.00 | 57 | 1015.8 |
| 20260504043216 | 49 | 134 | 0.0 | 0.0 | 0.00 | 0.00 | 0.00 | 61 | 1015.7 |
| 20260504042714 | 49 | 134 | 0.0 | 0.0 | 0.00 | 0.00 | 0.00 | 53 | 1015.7 |
| 20260504042210 | 49 | 134 | 0.0 | 0.0 | 0.00 | 0.00 | 0.00 | 55 | 1015.7 |
| 20260504041706 | 50 | 133 | 0.0 | 0.0 | 0.00 | 0.00 | 0.00 | 57 | 1015.6 |
| 20260504041202 | 50 | 133 | 0.0 | 0.0 | 0.00 | 0.00 | 0.00 | 49 | 1015.6 |
| 20260504040659 | 50 | 133 | 0.0 | 0.0 | 0.00 | 0.00 | 0.00 | 52 | 1015.7 |
| 20260504040156 | 50 | 132 | 0.0 | 0.0 | 0.00 | 0.00 | 0.00 | 51 | 1015.7 |
| 20260504035652 | 50 | 132 | 0.0 | 0.0 | 0.00 | 0.00 | 0.00 | 49 | 1015.6 |
| 20260504035149 | 50 | 132 | 0.0 | 0.0 | 0.00 | 0.00 | 0.00 | 49 | 1015.5 |
| 20260504034647 | 50 | 132 | 0.0 | 0.0 | 0.00 | 0.00 | 0.00 | 52 | 1015.6 |
| 20260504034144 | 50 | 131 | 0.0 | 0.0 | 0.00 | 0.00 | 0.00 | 52 | 1015.5 |
| 20260504033641 | 49 | 164 | 0.0 | 0.0 | 0.00 | 0.00 | 0.00 | 55 | 1015.6 |
| 20260504033139 | 49 | 158 | 0.0 | 0.0 | 0.00 | 0.00 | 0.00 | 52 | 1015.4 |
| 20260504032635 | 49 | 158 | 0.0 | 0.0 | 0.00 | 0.00 | 0.00 | 53 | 1015.5 |
| 20260504032132 | 50 | 159 | 0.0 | 0.0 | 0.00 | 0.00 | 0.00 | 57 | 1015.6 |
| 20260504031630 | 50 | 132 | 0.0 | 0.0 | 0.00 | 0.00 | 0.00 | 52 | 1015.4 |
| 20260504031126 | 50 | 121 | 0.0 | 1.0 | 0.00 | 0.00 | 0.00 | 55 | 1015.6 |
| 20260504030622 | 50 | 100 | 1.0 | 2.0 | 0.00 | 0.00 | 0.00 | 54 | 1015.5 |
| 20260504030119 | 51 | 131 | 1.0 | 1.0 | 0.00 | 0.00 | 0.00 | 53 | 1015.6 |
| 20260504025616 | 52 | 191 | 0.0 | 0.0 | 0.00 | 0.00 | 0.00 | 45 | 1015.6 |
| 20260504025113 | 52 | 192 | 1.0 | 1.0 | 0.00 | 0.00 | 0.00 | 42 | 1015.6 |
| 20260504024610 | 52 | 192 | 0.0 | 0.0 | 0.00 | 0.00 | 0.00 | 43 | 1015.6 |
| 20260504024107 | 52 | 192 | 1.0 | 1.0 | 0.00 | 0.00 | 0.00 | 43 | 1015.3 |
| 20260504023603 | 51 | 192 | 1.0 | 1.0 | 0.00 | 0.00 | 0.00 | 44 | 1015.4 |
| 20260504023059 | 51 | 192 | 1.0 | 1.0 | 0.00 | 0.00 | 0.00 | 46 | 1015.5 |
| 20260504022555 | 51 | 195 | 1.0 | 1.0 | 0.00 | 0.00 | 0.00 | 44 | 1015.5 |
| 20260504022052 | 51 | 198 | 1.0 | 1.0 | 0.00 | 0.00 | 0.00 | 46 | 1015.4 |
| 20260504021549 | 51 | 209 | 2.0 | 2.0 | 0.00 | 0.00 | 0.00 | 45 | 1015.4 |
| 20260504021046 | 52 | 212 | 2.0 | 3.0 | 0.00 | 0.00 | 0.00 | 44 | 1015.4 |
| 20260504020543 | 52 | 207 | 2.0 | 2.0 | 0.00 | 0.00 | 0.00 | 42 | 1015.2 |
| 20260504020040 | 52 | 214 | 2.0 | 2.0 | 0.00 | 0.00 | 0.00 | 41 | 1015.1 |
| 20260504015536 | 52 | 209 | 2.0 | 2.0 | 0.00 | 0.00 | 0.00 | 40 | 1015.1 |
| 20260504015032 | 51 | 211 | 2.0 | 3.0 | 0.00 | 0.00 | 0.00 | 42 | 1015.0 |
| 20260504014528 | 51 | 204 | 2.0 | 2.0 | 0.00 | 0.00 | 0.00 | 42 | 1015.1 |
| 20260504014026 | 51 | 208 | 2.0 | 2.0 | 0.00 | 0.00 | 0.00 | 42 | 1014.9 |
| 20260504013523 | 51 | 210 | 2.0 | 2.0 | 0.00 | 0.00 | 0.00 | 40 | 1014.8 |
| 20260504013020 | 51 | 222 | 4.0 | 4.0 | 0.00 | 0.00 | 0.00 | 41 | 1014.9 |
| 20260504012518 | 51 | 225 | 2.0 | 3.0 | 0.00 | 0.00 | 0.00 | 40 | 1014.8 |
| 20260504012016 | 51 | 211 | 1.0 | 2.0 | 0.00 | 0.00 | 0.00 | 40 | 1014.8 |
| 20260504011512 | 51 | 216 | 2.0 | 2.0 | 0.00 | 0.00 | 0.00 | 41 | 1014.7 |
| 20260504011008 | 50 | 216 | 2.0 | 2.0 | 0.00 | 0.00 | 0.00 | 41 | 1014.8 |
| 20260504010504 | 51 | 208 | 1.0 | 1.0 | 0.00 | 0.00 | 0.00 | 43 | 1014.5 |
| 20260504005959 | 52 | 208 | 0.0 | 0.0 | 0.00 | 0.00 | 0.00 | 40 | 1014.6 |
| 20260504005456 | 53 | 208 | 0.0 | 0.0 | 0.00 | 0.00 | 0.00 | 36 | 1014.5 |
| 20260504004954 | 53 | 208 | 1.0 | 1.0 | 0.00 | 0.00 | 0.00 | 35 | 1014.5 |
| 20260504004451 | 53 | 208 | 1.0 | 1.0 | 0.00 | 0.00 | 0.00 | 34 | 1014.5 |
| 20260504003949 | 53 | 208 | 1.0 | 1.0 | 0.00 | 0.00 | 0.00 | 38 | 1014.4 |
| 20260504003444 | 54 | 207 | 1.0 | 1.0 | 0.00 | 0.00 | 0.00 | 35 | 1014.4 |
| 20260504002942 | 55 | 207 | 1.0 | 1.0 | 0.00 | 0.00 | 0.00 | 34 | 1014.6 |
| 20260504002439 | 56 | 207 | 1.0 | 1.0 | 0.00 | 0.00 | 0.00 | 33 | 1014.5 |
| 20260504001936 | 56 | 208 | 1.0 | 1.0 | 0.00 | 0.00 | 0.00 | 32 | 1014.3 |
| 20260504001433 | 56 | 205 | 1.0 | 1.0 | 0.00 | 0.00 | 0.00 | 31 | 1014.5 |
| 20260504000930 | 57 | 204 | 1.0 | 1.0 | 0.00 | 0.00 | 0.00 | 31 | 1014.5 |
| 20260504000427 | 57 | 204 | 1.0 | 1.0 | 0.00 | 0.00 | 0.00 | 30 | 1014.4 |
| 20260503235924 | 58 | 204 | 1.0 | 2.0 | 0.00 | 0.00 | 0.00 | 28 | 1014.3 |
| 20260503235422 | 59 | 204 | 1.0 | 1.0 | 0.00 | 0.00 | 0.00 | 27 | 1014.5 |
| 20260503234919 | 59 | 204 | 1.0 | 1.0 | 0.00 | 0.00 | 0.00 | 26 | 1014.3 |
| 20260503234417 | 60 | 204 | 1.0 | 1.0 | 0.00 | 0.00 | 0.00 | 25 | 1014.3 |
| 20260503233914 | 60 | 204 | 2.0 | 2.0 | 0.00 | 0.00 | 0.00 | 25 | 1014.2 |
| 20260503233411 | 60 | 204 | 3.0 | 3.0 | 0.00 | 0.00 | 0.00 | 25 | 1014.1 |
| 20260503232907 | 61 | 206 | 1.0 | 2.0 | 0.00 | 0.00 | 0.00 | 25 | 1014.3 |
| 20260503232404 | 61 | 219 | 2.0 | 2.0 | 0.00 | 0.00 | 0.00 | 24 | 1014.1 |
| 20260503231902 | 62 | 203 | 2.0 | 3.0 | 0.00 | 0.00 | 0.00 | 25 | 1014.0 |
| 20260503231359 | 61 | 198 | 0.0 | 1.0 | 0.00 | 0.00 | 0.00 | 26 | 1014.0 |
| 20260503230855 | 62 | 206 | 4.0 | 4.0 | 0.00 | 0.00 | 0.00 | 24 | 1014.1 |
| 20260503230352 | 62 | 208 | 3.0 | 4.0 | 0.00 | 0.00 | 0.00 | 23 | 1014.2 |
| 20260503225850 | 62 | 238 | 4.0 | 6.0 | 0.00 | 0.00 | 0.00 | 23 | 1014.1 |
| 20260503225345 | 63 | 202 | 2.0 | 2.0 | 0.00 | 0.00 | 0.00 | 25 | 1014.0 |
| 20260503224842 | 63 | 195 | 0.0 | 1.0 | 0.00 | 0.00 | 0.00 | 24 | 1014.0 |
| 20260503224339 | 63 | 227 | 3.0 | 4.0 | 0.00 | 0.00 | 0.00 | 23 | 1014.0 |
| 20260503223837 | 62 | 200 | 1.0 | 1.0 | 0.00 | 0.00 | 0.00 | 26 | 1014.2 |
| 20260503223334 | 63 | 213 | 5.0 | 6.0 | 0.00 | 0.00 | 0.00 | 24 | 1014.1 |
| 20260503222830 | 64 | 210 | 4.0 | 4.0 | 0.00 | 0.00 | 0.00 | 25 | 1014.0 |
| 20260503222329 | 63 | 186 | 1.0 | 1.0 | 0.00 | 0.00 | 0.00 | 27 | 1014.1 |
| 20260503221826 | 63 | 183 | 1.0 | 2.0 | 0.00 | 0.00 | 0.00 | 22 | 1014.0 |
| 20260503221325 | 63 | 283 | 1.0 | 2.0 | 0.00 | 0.00 | 0.00 | 23 | 1013.9 |
| 20260503220820 | 63 | 181 | 3.0 | 3.0 | 0.00 | 0.00 | 0.00 | 25 | 1014.0 |
| 20260503220318 | 64 | 207 | 3.0 | 4.0 | 0.00 | 0.00 | 0.00 | 24 | 1014.4 |
| 20260503215814 | 64 | 216 | 3.0 | 4.0 | 0.00 | 0.00 | 0.00 | 24 | 1014.1 |
| 20260503215311 | 63 | 198 | 1.0 | 1.0 | 0.00 | 0.00 | 0.00 | 22 | 1014.1 |
| 20260503214809 | 64 | 233 | 8.0 | 9.0 | 0.00 | 0.00 | 0.00 | 23 | 1014.2 |
| 20260503214306 | 65 | 220 | 5.0 | 6.0 | 0.00 | 0.00 | 0.00 | 25 | 1014.3 |
| 20260503213804 | 65 | 186 | 0.0 | 0.0 | 0.00 | 0.00 | 0.00 | 25 | 1014.1 |
| 20260503213301 | 64 | 207 | 1.0 | 2.0 | 0.00 | 0.00 | 0.00 | 25 | 1014.3 |
| 20260503212758 | 63 | 215 | 1.0 | 1.0 | 0.00 | 0.00 | 0.00 | 26 | 1014.3 |
| 20260503212255 | 62 | 200 | 4.0 | 6.0 | 0.00 | 0.00 | 0.00 | 27 | 1014.2 |
| 20260503211753 | 62 | 184 | 3.0 | 3.0 | 0.00 | 0.00 | 0.00 | 26 | 1014.1 |
| 20260503211249 | 62 | 206 | 4.0 | 4.0 | 0.00 | 0.00 | 0.00 | 25 | 1014.1 |
| 20260503210744 | 62 | 213 | 3.0 | 3.0 | 0.00 | 0.00 | 0.00 | 27 | 1014.3 |
| 20260503210242 | 62 | 164 | 8.0 | 9.0 | 0.00 | 0.00 | 0.00 | 26 | 1014.4 |
| 20260503205742 | 63 | 204 | 4.0 | 4.0 | 0.00 | 0.00 | 0.00 | 26 | 1014.4 |
| 20260503205239 | 64 | 196 | 4.0 | 4.0 | 0.00 | 0.00 | 0.00 | 26 | 1014.5 |
| 20260503204735 | 64 | 204 | 3.0 | 4.0 | 0.00 | 0.00 | 0.00 | 27 | 1014.5 |
| 20260503204233 | 63 | 170 | 3.0 | 3.0 | 0.00 | 0.00 | 0.00 | 29 | 1014.4 |
| 20260503203730 | 63 | 209 | 4.0 | 4.0 | 0.00 | 0.00 | 0.00 | 28 | 1014.5 |
| 20260503203228 | 63 | 189 | 2.0 | 2.0 | 0.00 | 0.00 | 0.00 | 26 | 1014.6 |
| 20260503202725 | 64 | 210 | 7.0 | 10.0 | 0.00 | 0.00 | 0.00 | 25 | 1014.6 |
| 20260503202223 | 64 | 138 | 1.0 | 2.0 | 0.00 | 0.00 | 0.00 | 22 | 1014.6 |
| 20260503201720 | 63 | 221 | 2.0 | 3.0 | 0.00 | 0.00 | 0.00 | 25 | 1014.6 |
| 20260503201218 | 64 | 231 | 4.0 | 4.0 | 0.00 | 0.00 | 0.00 | 24 | 1014.6 |
| 20260503200714 | 64 | 197 | 1.0 | 2.0 | 0.00 | 0.00 | 0.00 | 26 | 1014.8 |
| 20260503200210 | 64 | 185 | 2.0 | 3.0 | 0.00 | 0.00 | 0.00 | 30 | 1014.9 |
| 20260503195707 | 63 | 84 | 2.0 | 2.0 | 0.00 | 0.00 | 0.00 | 27 | 1014.9 |
| 20260503195204 | 63 | 33 | 2.0 | 4.0 | 0.00 | 0.00 | 0.00 | 29 | 1015.1 |
| 20260503194701 | 62 | 224 | 4.0 | 6.0 | 0.00 | 0.00 | 0.00 | 24 | 1015.2 |
| 20260503194156 | 64 | 210 | 3.0 | 3.0 | 0.00 | 0.00 | 0.00 | 26 | 1015.2 |
| 20260503193653 | 63 | 157 | 1.0 | 1.0 | 0.00 | 0.00 | 0.00 | 31 | 1015.0 |
| 20260503193149 | 62 | 119 | 1.0 | 2.0 | 0.00 | 0.00 | 0.00 | 27 | 1015.2 |
| 20260503192645 | 61 | 82 | 2.0 | 2.0 | 0.00 | 0.00 | 0.00 | 27 | 1015.4 |
| 20260503192140 | 61 | 183 | 0.0 | 1.0 | 0.00 | 0.00 | 0.00 | 29 | 1015.3 |
| 20260503191638 | 61 | 210 | 8.0 | 10.0 | 0.00 | 0.00 | 0.00 | 30 | 1015.3 |
| 20260503191135 | 61 | 200 | 6.0 | 9.0 | 0.00 | 0.00 | 0.00 | 30 | 1015.5 |
| 20260503190632 | 61 | 196 | 8.0 | 9.0 | 0.00 | 0.00 | 0.00 | 27 | 1015.5 |
| 20260503190128 | 61 | 193 | 4.0 | 6.0 | 0.00 | 0.00 | 0.00 | 26 | 1015.8 |
| 20260503185625 | 61 | 221 | 9.0 | 10.0 | 0.00 | 0.00 | 0.00 | 34 | 1015.8 |
| 20260503185120 | 62 | 200 | 4.0 | 6.0 | 0.00 | 0.00 | 0.00 | 35 | 1015.9 |
| 20260503184615 | 60 | 149 | 0.0 | 0.0 | 0.00 | 0.00 | 0.00 | 31 | 1016.0 |
| 20260503184112 | 60 | 202 | 2.0 | 2.0 | 0.00 | 0.00 | 0.00 | 34 | 1016.0 |
| 20260503183609 | 61 | 141 | 1.0 | 2.0 | 0.00 | 0.00 | 0.00 | 30 | 1016.2 |
| 20260503183106 | 60 | 224 | 4.0 | 6.0 | 0.00 | 0.00 | 0.00 | 33 | 1016.1 |
| 20260503182605 | 59 | 200 | 6.0 | 8.0 | 0.00 | 0.00 | 0.00 | 31 | 1016.1 |
| 20260503182102 | 60 | 186 | 6.0 | 7.0 | 0.00 | 0.00 | 0.00 | 33 | 1016.4 |
| 20260503181559 | 59 | 176 | 6.0 | 8.0 | 0.00 | 0.00 | 0.00 | 34 | 1016.5 |
| 20260503181055 | 58 | 178 | 2.0 | 2.0 | 0.00 | 0.00 | 0.00 | 31 | 1016.5 |
| 20260503180553 | 59 | 241 | 10.0 | 13.0 | 0.00 | 0.00 | 0.00 | 30 | 1016.5 |
| 20260503180050 | 60 | 226 | 8.0 | 9.0 | 0.00 | 0.00 | 0.00 | 33 | 1016.7 |
| 20260503175547 | 59 | 169 | 0.0 | 1.0 | 0.00 | 0.00 | 0.00 | 36 | 1016.6 |
| 20260503175044 | 58 | 62 | 6.0 | 7.0 | 0.00 | 0.00 | 0.00 | 30 | 1016.2 |
| 20260503174541 | 59 | 209 | 3.0 | 4.0 | 0.00 | 0.00 | 0.00 | 33 | 1016.6 |
| 20260503174038 | 58 | 118 | 2.0 | 3.0 | 0.00 | 0.00 | 0.00 | 32 | 1016.5 |
| 20260503173533 | 59 | 31 | 3.0 | 4.0 | 0.00 | 0.00 | 0.00 | 33 | 1016.7 |
| 20260503173029 | 59 | 54 | 4.0 | 6.0 | 0.00 | 0.00 | 0.00 | 35 | 1016.6 |
| 20260503172527 | 58 | 87 | 0.0 | 2.0 | 0.00 | 0.00 | 0.00 | 32 | 1016.8 |
| 20260503172024 | 59 | 33 | 6.0 | 8.0 | 0.00 | 0.00 | 0.00 | 31 | 1016.7 |
| 20260503171520 | 59 | 100 | 2.0 | 2.0 | 0.00 | 0.00 | 0.00 | 34 | 1017.0 |
| 20260503171018 | 57 | 115 | 2.0 | 2.0 | 0.00 | 0.00 | 0.00 | 36 | 1016.9 |
| 20260503170514 | 56 | 69 | 3.0 | 4.0 | 0.00 | 0.00 | 0.00 | 38 | 1017.0 |
| 20260503150906 | 51 | 143 | 0.0 | 1.0 | 0.00 | 0.00 | 0.00 | 42 | 1018.4 |
| 20260503150403 | 51 | 129 | 1.0 | 1.0 | 0.00 | 0.00 | 0.00 | 39 | 1018.3 |
| 20260503131256 | 48 | 195 | 3.0 | 3.0 | 0.00 | 0.00 | 0.00 | 43 | 1018.4 |
| 20260503130754 | 48 | 350 | 2.0 | 2.0 | 0.00 | 0.00 | 0.00 | 43 | 1018.4 |
| 20260503130251 | 48 | 214 | 4.0 | 6.0 | 0.00 | 0.00 | 0.00 | 42 | 1018.5 |
| 20260503120217 | 46 | 280 | 1.0 | 2.0 | 0.00 | 0.00 | 0.00 | 48 | 1018.1 |
| 20260503110644 | 45 | 173 | 0.0 | 0.0 | 0.00 | 0.00 | 0.00 | 59 | 1017.6 |
| 20260503110142 | 44 | 135 | 0.0 | 1.0 | 0.00 | 0.00 | 0.00 | 59 | 1017.3 |
| 20260503100108 | 40 | 56 | 1.0 | 2.0 | 0.00 | 0.00 | 0.00 | 64 | 1015.8 |
| 20260503081422 | 40 | 180 | 0.0 | 0.0 | 0.00 | 0.00 | 0.00 | 57 | 1015.1 |
| 20260503080919 | 40 | 188 | 0.0 | 0.0 | 0.00 | 0.00 | 0.00 | 57 | 1015.2 |
| 20260503080415 | 39 | 177 | 0.0 | 0.0 | 0.00 | 0.00 | 0.00 | 59 | 1015.1 |
| 20260503072852 | 42 | 188 | 0.0 | 0.0 | 0.00 | 0.00 | 0.00 | 55 | 1014.9 |
| 20260503072349 | 42 | 186 | 0.0 | 0.0 | 0.00 | 0.00 | 0.00 | 54 | 1015.0 |
| 20260503071845 | 42 | 180 | 0.0 | 0.0 | 0.00 | 0.00 | 0.00 | 54 | 1014.7 |
| 20260503071342 | 42 | 168 | 1.0 | 1.0 | 0.00 | 0.00 | 0.00 | 56 | 1014.8 |
| 20260503070839 | 42 | 162 | 0.0 | 0.0 | 0.00 | 0.00 | 0.00 | 56 | 1014.7 |
| 20260503070337 | 42 | 182 | 0.0 | 0.0 | 0.00 | 0.00 | 0.00 | 55 | 1014.9 |